Regional Weather Roundup
Issued by NWS

Home | Current Version | Previous Version | Graphics & Text | Print | Product List | Glossary On
Versions: 1 2 3 4 5 6 7 8 9 10 11 12 13 14 15 16 17 18 19 20 21 22 23 24 25 26 27 28 29 30 31 32 33 34 35 36 37 38 39 40 41 42 43 44 45 46 47 48 49 50
000
ASUS45 KTFX 230119
RWRMT
MONTANA HOURLY WEATHER ROUNDUP
NATIONAL WEATHER SERVICE GREAT FALLS MT
719 PM MDT FRI AUG 22 2014

NOTE: "FAIR" INDICATES FEW OR NO CLOUDS BELOW 12000 FEET WITH NO
SIGNIFICANT WEATHER AND/OR OBSTRUCTIONS TO VISIBILITY.

* THESE STATIONS ARE NOT UNDER NWS QUALITY CONTROL. THEY DO NOT
   REPORT WEATHER SUCH AS PRECIPITATION OR FOG.

MTZ001>007-043-230200-
WEST OF THE DIVIDE
CITY           SKY/WX    TMP DP  RH WIND       PRES   REMARKS
KALISPELL      CLOUDY    61  43  52 N18       30.10R
MISSOULA       CLOUDY    61  50  67 N14G22    30.04R
BUTTE          LGT RAIN  54  45  72 SW12      30.11R
MULLAN PASS    CLOUDY    48  45  89 CALM      30.13S
* ESSEX        N/A       55  42  62 E7G12      N/A
* LINCOLN      N/A       58  45  62 NE8G18     N/A
* LOOKOUT PASS N/A       56  46  69 W4G9       N/A
* POLSON       N/A       58  48  70 N3         N/A
* RONAN APT    CLOUDY    63  54  73 N/A        N/A
* SEELEY LAKE  N/A       56  53  90 S2G7       N/A
* THOMP F APT  CLOUDY    49  45  86 NW4G15     N/A
$$

MTZ008-052>055-230200-
SOUTHWEST MONTANA
CITY           SKY/WX    TMP DP  RH WIND       PRES   REMARKS
BOZEMAN        CLOUDY    55  48  77 N7        30.08R
DILLON         CLOUDY    54  48  80 NW3       30.07S
W YELLOWSTONE  CLOUDY    55  45  69 W5        30.10F
* THREE FORKS  CLOUDY    55  37  51 N/A        N/A
* BOULDER HILL N/A       53  42  66 N9G17      N/A
* MONIDA PASS  N/A       46  45  96 NE6        N/A
* RAYNOLDS PAS N/A       49  45  86 NW5G11     N/A
* WHITEHALL    N/A       59  50  72 E5G12      N/A
* WISE RIVER   N/A       49  46  89 N2G20      N/A
$$

MTZ009>010-012-014-046-048-049-054-230200-
EAST SLOPES AND CENTRAL MONTANA
CITY           SKY/WX    TMP DP  RH WIND       PRES   REMARKS
CUT BANK       CLOUDY    48  46  93 N22G30    30.22R
GREAT FALLS    CLOUDY    57  52  83 N12       30.12S
HELENA         CLOUDY    61  48  62 N13       30.07R
MALMSTROM AFB  MOCLDY    57  54  90 N14       30.13S
* CONRAD       PTCLDY    52  52 100 NW10G16    N/A
* DEARBORN     N/A       57  50  78 N11G16     N/A
* EAST GLACIER N/A       43  42  96 NE17G23    N/A
* MONARCH      N/A       49  46  89 N9G16      N/A
* PENDROY      N/A       48  47  96 NE19G24    N/A
* SAINT MARY   N/A       45  44  96 N4G16      N/A
* SWEET GRASS  N/A       47  47 100 NE24G32    N/A
* WHITE SULPH  N/A       52  49  90 NE4G11     N/A
$$

MTZ011-013-016-021-035-040-045-047-050-051-230200-
NORTH CENTRAL MONTANA
CITY           SKY/WX    TMP DP  RH WIND       PRES   REMARKS
HAVRE          CLOUDY    59  55  87 NE17      30.11S
LEWISTOWN      LGT RAIN  57  54  90 N10       30.10S
* FORT BENTON  PTCLDY    61  55  81 N6        30.11S
* CHESTER      N/A       53  51  93 NE10G16    N/A
* DENTON       N/A       58  54  87 N11        N/A
* GEYSER       N/A       57  48  72 NE11       N/A
* JUDITH GAP   N/A       54  54 100 N16        N/A
* LOMA         N/A       61  56  84 VRB12      N/A
$$

MTZ017>020-022>027-061-062-230200-
NORTHEAST MONTANA
CITY           SKY/WX    TMP DP  RH WIND       PRES   REMARKS
GLASGOW        CLOUDY    64  54  70 NE17      30.09S
GLENDIVE       CLOUDY    64  59  84 NE16      30.08R
JORDAN         MOCLDY    64  55  73 E17       30.05F
SIDNEY         CLOUDY    64  57  78 NE10      30.10S
WOLF POINT     CLOUDY    66  54  65 E18G24    30.08S
* BEAVER HILL  N/A       64  59  84 NE17G24    N/A
* CIRCLE       N/A       65  58  78 NE9G14     N/A
* LINDSAY DVD  N/A       62  57  84 NE19       N/A
* SACO         N/A       65  53  65 NE16G21    N/A
$$

MTZ028>042-056>058-230200-
SOUTHCENTRAL AND SOUTHEAST MONTANA
CITY           SKY/WX    TMP DP  RH WIND       PRES   REMARKS
BAKER          CLOUDY    64  63  97 NE14      30.04F
BILLINGS       LGT RAIN  63  57  81 N9        30.03S
LIVINGSTON     CLOUDY    57  52  83 E13       30.06S
MILES CITY     LGT RAIN  66  61  84 NE14      30.01S
* LAUREL APT   CLOUDY    61  55  81 N/A        N/A
* ROUNDUP APT  CLOUDY    63  54  73 N/A        N/A
* ALZADA       N/A       67  60  78 NE11G16    N/A
* HYSHAM       N/A       67  47  49 E11        N/A
* LAME DEER    N/A       58  58 100 NE8G16     N/A
* REED POINT   N/A       60  58  93 N/A        N/A
* ROSCOE HILL  N/A       54  49  83 NW2        N/A
$$

REGIONAL REPORTS...DAKOTAS
CITY           SKY/WX    TMP DP  RH WIND       PRES   REMARKS
WILLISTON      CLOUDY    66  54  65 NE14      30.13R
DICKINSON      CLOUDY    66  61  84 NE14      30.07R
BEACH          N/A       63  63 100 NE10      30.08S
CROSBY         CLOUDY    63  57  81 E12       30.15S
TIOGA          CLOUDY    63  61  93 E12       30.16S
WATFORD CITY   CLOUDY    63  57  81 NE10      30.10R
BISMARCK       CLOUDY    68  64  87 NE10      30.05S
GRAND FORKS    CLOUDY    70  63  79 N12       30.05R
FARGO          CLOUDY    70  66  87 N9        30.02S
BUFFALO SD     MOCLDY    68  61  78 E10       29.98S
RAPID CITY     MOCLDY    73  63  71 CALM      30.00F
$$

REGIONAL REPORTS...WYOMING/IDAHO/WASHINGTON
CITY           SKY/WX    TMP DP  RH WIND       PRES   REMARKS
GILLETTE       TSTM      61  57  87 N7        30.02R
SHERIDAN       CLOUDY    66  55  68 NE13      30.01R
CODY           MOCLDY    59  52  78 N12G17    30.04R
YELLOWSTONE LA CLOUDY    48  39  71 CALM      30.18S
SALMON         CLOUDY    57  43  60 S15       30.02F
MULLAN PASS    CLOUDY    48  45  89 CALM      30.13S
SAND POINT     PTCLDY    64  48  56 N20       30.06R
SPOKANE        MOCLDY    72  48  43 N15       30.01R
$$

REGIONAL REPORTS...ALBERTA
CITY           SKY/WX    TMP DP  RH WIND       PRES   REMARKS
CALGARY        CLOUDY    54  45  72 NE8       30.32S
LETHBRIDGE     CLOUDY    50  46  86 NE12G20   30.28S
MEDICINE HAT   LGT RAIN  52  52 100 N12       30.25R
EDMONTON       MOCLDY    59  34  39 E9        30.34F
WATERTON GATE  N/A       45  43  93 NE12G17    N/A
CARDSTON       N/A       46  45  96 NE7        N/A
$$

REGIONAL REPORTS...SASKATCHEWAN
CITY           SKY/WX    TMP DP  RH WIND       PRES   REMARKS
SWIFT CURRENT  CLOUDY    59  52  78 NE16G22   30.20S
REGINA         MOCLDY    63  52  68 E12G20    30.19S
VAL MARIE      N/A       59  54  84 E13G20     N/A
ASSINIBOIA     N/A       63  50  63 NE12       N/A
CORONACH       N/A       63  52  68 NE9        N/A

$$




USA.gov is the U.S. government's official web portal to all federal, state and local government web resources and services.